Terug naar catalogus

SL-12 DEB

LostHEO
NORAD 35056·DEBRIS·🇷🇺 Russia

Gelanceerd Apr 4, 1991 vanaf Baikonur Cosmodrome

Loading…

Volgende Passages (komende 24 uur)

TLE

VerouderdSource: Space-Track

Epoch: Jan 30, 2010, 21:06 UTC

1 35056U 91025AA  10030.87953118 -.00001994  00000-0 -16813-1 0  9997
2 35056  65.3186  54.7376 5610935 349.0324   2.6415  4.25227581 10506

Volg SL-12 DEB in realtime met AllMySat

Download on the App Store